GW5189 Weather Reports


time (UTC)temp
C
wind
direction
speed
KPH
gust
KPH
rain 1hr
cm
rain 24hr
cm
rain mn
cm
humidity
%
barometer
mb
20260502164300 19 251 3.2 11.3 0.00 0.00 0.00 22 1021.5
20260502163755 19 121 3.2 12.9 0.00 0.00 0.00 23 1021.5
20260502163252 19 234 6.4 9.7 0.00 0.00 0.00 24 1021.7
20260502162749 19 172 3.2 9.7 0.00 0.00 0.00 21 1021.7
20260502162246 19 271 4.8 6.4 0.00 0.00 0.00 23 1021.6
20260502161743 19 127 1.6 6.4 0.00 0.00 0.00 24 1021.6
20260502161239 18 4 1.6 9.7 0.00 0.00 0.00 25 1021.6
20260502160737 18 113 6.4 11.3 0.00 0.00 0.00 24 1021.6
20260502160236 18 57 1.6 3.2 0.00 0.00 0.00 27 1021.7
20260502152206 17 112 1.6 9.7 0.00 0.00 0.00 28 1021.7
20260502151703 16 117 1.6 4.8 0.00 0.00 0.00 29 1021.7
20260502151200 16 79 1.6 4.8 0.00 0.00 0.00 29 1021.8
20260502150658 16 81 3.2 6.4 0.00 0.00 0.00 29 1021.8
20260502150154 16 81 3.2 4.8 0.00 0.00 0.00 30 1021.7
20260502140117 13 177 4.8 9.7 0.00 0.00 0.00 38 1021.8
20260502130543 9 277 1.6 3.2 0.00 0.00 0.00 45 1021.5
20260502123526 8 10 0.0 1.6 0.00 0.00 0.00 58 1021.2
20260502123022 8 345 1.6 1.6 0.00 0.00 0.00 59 1021.2
20260502122519 8 36 0.0 0.0 0.00 0.00 0.00 60 1021.2
20260502122016 8 31 1.6 1.6 0.00 0.00 0.00 60 1021.1
20260502121514 8 59 0.0 3.2 0.00 0.00 0.00 60 1021.1
20260502121011 8 129 1.6 1.6 0.00 0.00 0.00 62 1021.2
20260502120507 7 120 0.0 1.6 0.00 0.00 0.00 64 1021.1
20260502115502 7 346 0.0 0.0 0.00 0.00 0.00 65 1021.2
20260502114957 6 346 0.0 0.0 0.00 0.00 0.00 64 1021.1
20260502114454 7 346 0.0 0.0 0.00 0.00 0.00 62 1021.2
20260502113952 7 346 0.0 1.6 0.00 0.00 0.00 62 1021.0
20260502113449 6 346 0.0 1.6 0.00 0.00 0.00 62 1021.2
20260502112948 6 346 0.0 0.0 0.00 0.00 0.00 61 1021.2
20260502112445 6 346 0.0 1.6 0.00 0.00 0.00 60 1021.2
20260502111942 6 346 1.6 1.6 0.00 0.00 0.00 60 1021.3
20260502111440 6 346 0.0 0.0 0.00 0.00 0.00 58 1021.0
20260502110937 7 346 0.0 0.0 0.00 0.00 0.00 56 1021.0
20260502110435 7 346 0.0 1.6 0.00 0.00 0.00 55 1021.1
20260502105931 7 346 0.0 0.0 0.00 0.00 0.00 55 1021.0
20260502105428 7 346 0.0 0.0 0.00 0.00 0.00 56 1021.2
20260502104926 6 346 0.0 0.0 0.00 0.00 0.00 57 1021.1
20260502104423 6 346 0.0 0.0 0.00 0.00 0.00 58 1021.1
20260502103920 6 346 0.0 0.0 0.00 0.00 0.00 59 1021.0
20260502103418 6 346 0.0 0.0 0.00 0.00 0.00 58 1021.0
20260502102915 6 346 0.0 0.0 0.00 0.00 0.00 58 1021.3
20260502102412 6 346 0.0 1.6 0.00 0.00 0.00 59 1021.1
20260502101909 5 346 0.0 0.0 0.00 0.00 0.00 61 1021.0
20260502101408 5 346 0.0 0.0 0.00 0.00 0.00 62 1021.2
20260502100905 5 346 0.0 0.0 0.00 0.00 0.00 61 1021.1
20260502100404 5 346 0.0 0.0 0.00 0.00 0.00 61 1021.1
20260502091337 6 346 0.0 0.0 0.00 0.00 0.00 57 1020.8
20260502090836 6 346 0.0 0.0 0.00 0.00 0.00 56 1020.9
20260502090332 6 346 0.0 0.0 0.00 0.00 0.00 56 1020.9
20260502071227 9 259 3.2 3.2 0.00 0.00 0.00 43 1021.2
20260502070725 8 4 1.6 1.6 0.00 0.00 0.00 45 1021.3
20260502070223 8 11 0.0 1.6 0.00 0.00 0.00 46 1021.1
20260502065721 9 13 0.0 0.0 0.00 0.00 0.00 45 1021.0
20260502065219 9 12 0.0 0.0 0.00 0.00 0.00 44 1021.0
20260502064717 9 277 1.6 4.8 0.00 0.00 0.00 44 1021.1
20260502064215 9 258 1.6 3.2 0.00 0.00 0.00 44 1021.1
20260502063712 8 337 1.6 1.6 0.00 0.00 0.00 45 1021.0
20260502063209 8 352 1.6 1.6 0.00 0.00 0.00 47 1021.1
20260502062706 8 34 0.0 0.0 0.00 0.00 0.00 47 1021.1
20260502062203 8 34 0.0 0.0 0.00 0.00 0.00 46 1020.9
20260502061702 8 34 0.0 0.0 0.00 0.00 0.00 45 1021.1
20260502061159 9 34 0.0 0.0 0.00 0.00 0.00 44 1021.1
20260502060654 10 34 0.0 0.0 0.00 0.00 0.00 43 1020.9
20260502060151 10 34 0.0 0.0 0.00 0.00 0.00 41 1020.9
20260502055648 10 37 0.0 1.6 0.00 0.00 0.00 42 1021.0
20260502055146 10 40 0.0 1.6 0.00 0.00 0.00 42 1021.2
20260502054645 9 78 0.0 1.6 0.00 0.00 0.00 43 1020.9
20260502054142 8 28 1.6 1.6 0.00 0.00 0.00 47 1020.8
20260502053639 8 28 0.0 0.0 0.00 0.00 0.00 48 1020.9
20260502053136 8 28 0.0 0.0 0.00 0.00 0.00 47 1021.0
20260502052635 9 28 0.0 0.0 0.00 0.00 0.00 46 1020.9
20260502052132 9 28 0.0 0.0 0.00 0.00 0.00 44 1020.8
20260502051630 10 28 0.0 0.0 0.00 0.00 0.00 44 1020.9
20260502051128 10 28 0.0 0.0 0.00 0.00 0.00 43 1020.5
20260502050624 10 28 0.0 0.0 0.00 0.00 0.00 43 1020.8
20260502050121 10 28 1.6 1.6 0.00 0.00 0.00 43 1020.9
20260502045617 10 29 1.6 1.6 0.00 0.00 0.00 42 1020.7
20260502045115 10 29 1.6 1.6 0.00 0.00 0.00 42 1020.9
20260502044611 10 30 0.0 0.0 0.00 0.00 0.00 43 1021.0
20260502044108 11 30 0.0 0.0 0.00 0.00 0.00 41 1020.9
20260502043606 11 14 1.6 1.6 0.00 0.00 0.00 40 1020.8
20260502043102 11 48 0.0 0.0 0.00 0.00 0.00 40 1020.9
20260502042557 11 55 0.0 0.0 0.00 0.00 0.00 39 1020.9
20260502042055 11 55 0.0 0.0 0.00 0.00 0.00 40 1020.7
20260502041553 11 20 0.0 0.0 0.00 0.00 0.00 41 1020.8
20260502041049 11 20 0.0 0.0 0.00 0.00 0.00 42 1020.7
20260502040546 11 20 0.0 0.0 0.00 0.00 0.00 41 1020.5
20260502040043 11 20 0.0 0.0 0.00 0.00 0.00 40 1020.7
20260502035539 11 20 0.0 0.0 0.00 0.00 0.00 39 1020.4
20260502035037 11 19 0.0 0.0 0.00 0.00 0.00 38 1020.4
20260502034535 11 19 1.6 1.6 0.00 0.00 0.00 38 1020.3
20260502034033 12 20 0.0 0.0 0.00 0.00 0.00 37 1020.5
20260502033530 12 19 0.0 1.6 0.00 0.00 0.00 37 1020.3
20260502033027 12 25 1.6 1.6 0.00 0.00 0.00 37 1020.0
20260502032523 12 33 0.0 0.0 0.00 0.00 0.00 36 1020.1
20260502032020 12 33 0.0 0.0 0.00 0.00 0.00 36 1020.1
20260502031518 12 33 0.0 0.0 0.00 0.00 0.00 36 1020.0
20260502031016 12 33 0.0 1.6 0.00 0.00 0.00 36 1019.9
20260502030514 12 33 0.0 0.0 0.00 0.00 0.00 36 1019.7
20260502030011 12 33 0.0 0.0 0.00 0.00 0.00 34 1019.5
20260502025509 13 33 0.0 0.0 0.00 0.00 0.00 33 1019.5
20260502025007 13 33 0.0 0.0 0.00 0.00 0.00 33 1019.5
20260502024504 13 33 0.0 0.0 0.00 0.00 0.00 32 1019.5
20260502024003 13 35 0.0 0.0 0.00 0.00 0.00 31 1019.6
20260502023459 14 35 0.0 0.0 0.00 0.00 0.00 29 1019.5
20260502022957 14 35 0.0 1.6 0.00 0.00 0.00 29 1019.6
20260502022453 15 37 0.0 1.6 0.00 0.00 0.00 29 1019.3
20260502021950 15 39 0.0 1.6 0.00 0.00 0.00 28 1019.4
20260502021448 15 43 0.0 0.0 0.00 0.00 0.00 28 1019.3
20260502020944 15 37 0.0 1.6 0.00 0.00 0.00 28 1019.3
20260502020443 15 40 0.0 1.6 0.00 0.00 0.00 27 1019.3
20260502015939 16 32 0.0 4.8 0.00 0.00 0.00 27 1019.4
20260502015437 16 9 0.0 1.6 0.00 0.00 0.00 26 1019.2
20260502014933 16 13 1.6 9.7 0.00 0.00 0.00 26 1019.2
20260502014430 16 9 1.6 9.7 0.00 0.00 0.00 26 1019.2
20260502013926 17 35 0.0 4.8 0.00 0.00 0.00 25 1019.2
20260502013421 17 57 0.0 4.8 0.00 0.00 0.00 25 1019.2
20260502012918 18 29 0.0 11.3 0.00 0.00 0.00 24 1019.0
20260502012416 18 272 8.0 11.3 0.00 0.00 0.00 23 1019.2
20260502011908 18 39 0.0 1.6 0.00 0.00 0.00 24 1019.2
20260502011404 18 74 0.0 3.2 0.00 0.00 0.00 24 1019.2
20260502010902 18 54 3.2 9.7 0.00 0.00 0.00 24 1019.2
20260502010358 18 261 3.2 6.4 0.00 0.00 0.00 24 1019.0
20260502005855 19 311 3.2 9.7 0.00 0.00 0.00 23 1019.0
20260502005353 20 281 3.2 4.8 0.00 0.00 0.00 23 1019.3
20260502004850 20 60 0.0 1.6 0.00 0.00 0.00 24 1019.0
20260502004346 19 58 1.6 4.8 0.00 0.00 0.00 24 1019.0
20260502003843 19 328 0.0 3.2 0.00 0.00 0.00 24 1019.0
20260502003340 20 341 1.6 11.3 0.00 0.00 0.00 23 1019.0
20260502002837 20 47 3.2 3.2 0.00 0.00 0.00 23 1019.2
20260502002334 20 269 3.2 9.7 0.00 0.00 0.00 23 1019.0
20260502001831 20 262 1.6 3.2 0.00 0.00 0.00 23 1019.2
20260502001329 21 39 0.0 3.2 0.00 0.00 0.00 22 1019.0
20260502000826 21 59 1.6 4.8 0.00 0.00 0.00 22 1019.3
20260502000325 20 57 1.6 4.8 0.00 0.00 0.00 23 1019.2
20260501235820 21 280 9.7 14.5 0.00 0.00 0.00 22 1019.0
20260501235316 20 55 1.6 6.4 0.00 0.00 0.00 22 1019.4
20260501234811 21 251 3.2 3.2 0.00 0.00 0.00 22 1019.0
20260501234309 21 1 1.6 3.2 0.00 0.00 0.00 23 1019.3
20260501233808 21 34 3.2 4.8 0.00 0.00 0.00 22 1019.4
20260501233304 21 57 1.6 9.7 0.00 0.00 0.00 22 1019.4
20260501232759 21 59 0.0 3.2 0.00 0.00 0.00 22 1019.5
20260501232257 21 262 3.2 9.7 0.00 0.00 0.00 22 1019.4
20260501231755 21 274 3.2 4.8 0.00 0.00 0.00 22 1019.4
20260501231253 21 71 1.6 4.8 0.00 0.00 0.00 22 1019.4
20260501230751 21 49 0.0 3.2 0.00 0.00 0.00 22 1019.4
20260501230249 21 294 1.6 4.8 0.00 0.00 0.00 22 1019.3
20260501225746 21 82 0.0 3.2 0.00 0.00 0.00 21 1019.5
20260501225244 21 85 1.6 11.3 0.00 0.00 0.00 23 1019.4
20260501224739 21 261 9.7 14.5 0.00 0.00 0.00 21 1019.3
20260501224237 21 33 1.6 9.7 0.00 0.00 0.00 22 1019.5
20260501223733 21 33 1.6 6.4 0.00 0.00 0.00 22 1019.5
20260501223230 21 37 0.0 4.8 0.00 0.00 0.00 21 1019.6
20260501222726 21 67 1.6 3.2 0.00 0.00 0.00 22 1019.7
20260501222223 21 319 1.6 4.8 0.00 0.00 0.00 21 1019.5
20260501221720 21 17 1.6 4.8 0.00 0.00 0.00 20 1019.7
20260501221217 21 59 1.6 11.3 0.00 0.00 0.00 21 1019.7
20260501220715 21 231 3.2 6.4 0.00 0.00 0.00 20 1019.9
20260501220212 21 349 1.6 14.5 0.00 0.00 0.00 20 1019.7
20260501215709 21 61 4.8 6.4 0.00 0.00 0.00 20 1020.0
20260501215204 21 42 1.6 6.4 0.00 0.00 0.00 20 1019.9
20260501214659 21 42 0.0 3.2 0.00 0.00 0.00 20 1019.9
20260501214155 21 258 6.4 6.4 0.00 0.00 0.00 19 1020.0
20260501213652 21 289 6.4 9.7 0.00 0.00 0.00 20 1019.9
20260501213148 21 51 0.0 1.6 0.00 0.00 0.00 20 1020.1
20260501212644 21 61 0.0 1.6 0.00 0.00 0.00 20 1020.0
20260501212141 21 19 3.2 11.3 0.00 0.00 0.00 21 1020.1
20260501211638 21 44 3.2 4.8 0.00 0.00 0.00 21 1020.3
20260501211136 22 272 4.8 6.4 0.00 0.00 0.00 22 1020.2
20260501210632 22 54 3.2 3.2 0.00 0.00 0.00 21 1020.1
20260501210129 21 317 4.8 6.4 0.00 0.00 0.00 22 1020.1
20260501205625 22 247 1.6 4.8 0.00 0.00 0.00 21 1020.4
20260501205123 21 27 1.6 4.8 0.00 0.00 0.00 22 1020.2
20260501204619 21 171 1.6 4.8 0.00 0.00 0.00 22 1020.4
20260501204115 20 58 1.6 3.2 0.00 0.00 0.00 21 1020.2
20260501203612 20 257 6.4 6.4 0.00 0.00 0.00 21 1020.3
20260501203109 19 25 3.2 4.8 0.00 0.00 0.00 23 1020.2
20260501202606 19 52 3.2 9.7 0.00 0.00 0.00 23 1020.3
20260501202103 19 275 3.2 9.7 0.00 0.00 0.00 22 1020.2
20260501201600 21 248 6.4 9.7 0.00 0.00 0.00 20 1020.1
20260501201056 20 66 1.6 3.2 0.00 0.00 0.00 22 1020.4
20260501200554 20 39 1.6 12.9 0.00 0.00 0.00 22 1020.2
20260501200051 20 37 0.0 1.6 0.00 0.00 0.00 22 1020.2
20260501195548 20 59 0.0 3.2 0.00 0.00 0.00 21 1020.4
20260501195044 18 33 0.0 11.3 0.00 0.00 0.00 24 1020.3
20260501194539 18 118 1.6 11.3 0.00 0.00 0.00 23 1020.5
20260501194035 20 283 4.8 6.4 0.00 0.00 0.00 22 1020.4
20260501193533 20 281 3.2 4.8 0.00 0.00 0.00 21 1020.4
20260501193032 19 57 0.0 4.8 0.00 0.00 0.00 23 1020.5
20260501192528 20 279 6.4 11.3 0.00 0.00 0.00 22 1020.5
20260501192026 20 27 1.6 4.8 0.00 0.00 0.00 23 1020.7
20260501191522 19 130 1.6 4.8 0.00 0.00 0.00 23 1020.8
20260501191020 19 268 3.2 4.8 0.00 0.00 0.00 23 1020.7
20260501190515 18 13 1.6 3.2 0.00 0.00 0.00 24 1020.8
20260501190011 18 291 3.2 11.3 0.00 0.00 0.00 22 1020.9
20260501185507 20 47 1.6 12.9 0.00 0.00 0.00 21 1020.9
20260501185003 21 258 3.2 6.4 0.00 0.00 0.00 21 1020.8
20260501184459 20 69 0.0 1.6 0.00 0.00 0.00 21 1021.0
20260501183954 20 87 0.0 1.6 0.00 0.00 0.00 21 1021.1
20260501183452 18 43 0.0 3.2 0.00 0.00 0.00 22 1021.2
20260501182948 18 356 1.6 3.2 0.00 0.00 0.00 21 1021.1
20260501182445 19 226 4.8 4.8 0.00 0.00 0.00 21 1020.9
20260501181941 18 56 3.2 3.2 0.00 0.00 0.00 22 1021.1
20260501181439 19 70 8.0 9.7 0.00 0.00 0.00 21 1021.3
20260501180936 20 71 1.6 3.2 0.00 0.00 0.00 22 1021.2
20260501180433 19 19 1.6 4.8 0.00 0.00 0.00 24 1021.3
20260501175929 19 288 3.2 4.8 0.00 0.00 0.00 22 1021.5
20260501175426 18 57 0.0 3.2 0.00 0.00 0.00 22 1021.2
20260501174923 19 67 4.8 4.8 0.00 0.00 0.00 21 1021.2
20260501174421 18 174 1.6 3.2 0.00 0.00 0.00 22 1021.3
20260501173918 17 84 1.6 3.2 0.00 0.00 0.00 22 1021.3
20260501173416 18 63 1.6 3.2 0.00 0.00 0.00 22 1021.5
20260501172911 18 107 3.2 4.8 0.00 0.00 0.00 22 1021.2
20260501172407 19 65 6.4 11.3 0.00 0.00 0.00 21 1021.5
20260501171902 18 63 0.0 1.6 0.00 0.00 0.00 23 1021.5
20260501171359 17 63 4.8 6.4 0.00 0.00 0.00 23 1021.3
20260501170855 17 283 3.2 3.2 0.00 0.00 0.00 25 1021.3
20260501170352 17 289 3.2 4.8 0.00 0.00 0.00 26 1021.5
20260501165850 17 62 0.0 3.2 0.00 0.00 0.00 27 1021.5